GW5498 Weather Reports


Display with metric or nautical units.
time (UTC)temp
F
wind
direction
speed
MPH
gust
MPH
rain 1hr
in
rain 24hr
in
rain mn
in
humidity
%
barometer
mb
20260507141409 56 0 2.0 7.0 0.00 0.00 0.00 56 1015.2
20260507140909 56 114 3.0 7.0 0.00 0.00 0.00 56 1015.2
20260507140409 56 239 3.0 7.0 0.00 0.00 0.00 57 1015.3
20260507135910 56 124 2.0 7.0 0.00 0.00 0.00 57 1015.3
20260507135409 56 215 2.0 6.0 0.00 0.00 0.00 55 1015.3
20260507134908 56 152 2.0 6.0 0.00 0.00 0.00 55 1015.3
20260507134408 57 117 2.0 6.0 0.00 0.00 0.00 55 1015.3
20260507133908 57 54 2.0 6.0 0.00 0.00 0.00 56 1015.3
20260507133411 56 260 2.0 8.0 0.00 0.00 0.00 57 1015.3
20260507132904 56 209 3.0 8.0 0.00 0.00 0.00 57 1015.4
20260507132404 56 125 3.0 10.0 0.00 0.00 0.00 55 1015.3
20260507131906 56 104 3.0 10.0 0.00 0.00 0.00 56 1015.4
20260507131404 56 122 3.0 8.0 0.00 0.00 0.00 57 1015.3
20260507130904 56 151 3.0 8.0 0.00 0.00 0.00 56 1015.3
20260507130405 56 208 2.0 7.0 0.00 0.00 0.00 55 1015.4
20260507125905 56 115 2.0 8.0 0.00 0.00 0.00 53 1015.3
20260507125405 56 0 3.0 9.0 0.00 0.00 0.00 54 1015.4
20260507124904 56 203 3.0 9.0 0.00 0.00 0.00 54 1015.3
20260507124403 56 211 3.0 8.0 0.00 0.00 0.00 54 1015.3
20260507123903 56 201 3.0 8.0 0.00 0.00 0.00 55 1015.4
20260507123404 56 214 3.0 7.0 0.00 0.00 0.00 55 1015.4
20260507122904 56 183 2.0 6.0 0.00 0.00 0.00 57 1015.4
20260507122404 56 56 3.0 8.0 0.00 0.00 0.00 56 1015.3
20260507121904 56 213 3.0 8.0 0.00 0.00 0.00 57 1015.4
20260507121404 55 54 3.0 8.0 0.00 0.00 0.00 58 1015.5
20260507120903 55 237 3.0 8.0 0.00 0.00 0.00 57 1015.5
20260507120359 56 220 3.0 7.0 0.00 0.00 0.00 58 1015.6
20260507115900 55 204 2.0 7.0 0.00 0.00 0.00 60 1015.6
20260507115358 56 19 2.0 7.0 0.00 0.00 0.00 59 1015.6
20260507114858 55 210 2.0 6.0 0.00 0.00 0.00 61 1015.7
20260507114354 55 230 3.0 8.0 0.00 0.00 0.00 61 1015.7
20260507113855 55 81 3.0 8.0 0.00 0.00 0.00 60 1015.6
20260507113355 55 121 2.0 7.0 0.00 0.00 0.00 60 1015.6
20260507112855 55 132 3.0 8.0 0.00 0.00 0.00 62 1015.7
20260507112354 55 142 3.0 8.0 0.00 0.00 0.00 60 1015.7
20260507111854 55 173 3.0 7.0 0.00 0.00 0.00 63 1015.7
20260507111355 55 212 3.0 7.0 0.00 0.00 0.00 62 1015.8
20260507110853 55 192 3.0 7.0 0.00 0.00 0.00 61 1015.8
20260507110405 54 248 3.0 9.0 0.00 0.00 0.00 63 1015.8
20260507105853 54 85 4.0 9.0 0.00 0.00 0.00 62 1015.9
20260507105353 54 153 3.0 6.0 0.00 0.00 0.00 63 1015.8
20260507104849 54 152 4.0 10.0 0.00 0.00 0.00 65 1015.9
20260507104349 54 129 3.0 10.0 0.00 0.00 0.00 63 1016.0
20260507103849 54 103 2.0 7.0 0.00 0.00 0.00 67 1016.0
20260507103348 54 222 3.0 7.0 0.00 0.00 0.00 67 1016.1
20260507102848 54 104 2.0 6.0 0.00 0.00 0.00 66 1016.1
20260507102347 54 179 2.0 5.0 0.00 0.00 0.00 67 1016.1
20260507101848 53 121 2.0 9.0 0.00 0.00 0.00 67 1016.1
20260507101348 53 62 3.0 9.0 0.00 0.00 0.00 69 1016.1
20260507100848 52 123 3.0 8.0 0.00 0.00 0.00 69 1016.1
20260507100347 52 173 3.0 8.0 0.00 0.00 0.00 70 1016.1
20260507095843 52 81 3.0 8.0 0.00 0.00 0.00 70 1016.1
20260507095342 52 90 3.0 8.0 0.00 0.00 0.00 71 1016.1
20260507094842 52 119 4.0 8.0 0.00 0.00 0.00 71 1016.2
20260507094342 52 146 3.0 7.0 0.00 0.00 0.00 71 1016.1
20260507093602 53 251 3.0 7.0 0.00 0.00 0.00 70 1016.0
20260507092843 52 166 2.0 6.0 0.00 0.00 0.00 71 1016.0
20260507091843 51 186 2.0 6.0 0.00 0.00 0.00 73 1016.0
20260507090839 50 215 2.0 7.0 0.00 0.00 0.00 74 1016.1
20260507085837 50 162 3.0 8.0 0.00 0.00 0.00 76 1016.1
20260507085337 50 164 3.0 7.0 0.00 0.00 0.00 75 1016.0
20260507084838 50 144 3.0 9.0 0.00 0.00 0.00 75 1016.0
20260507084337 50 142 3.0 9.0 0.00 0.00 0.00 76 1016.0
20260507083838 49 0 2.0 8.0 0.00 0.00 0.00 76 1015.9
20260507083338 49 210 2.0 8.0 0.00 0.00 0.00 75 1015.9
20260507082838 49 234 3.0 7.0 0.00 0.00 0.00 76 1015.9
20260507082338 48 199 4.0 8.0 0.00 0.00 0.00 77 1015.9
20260507081338 48 107 3.0 9.0 0.00 0.00 0.00 77 1015.8
20260507075334 48 67 2.0 7.0 0.00 0.00 0.00 79 1015.8
20260507074556 49 114 1.0 5.0 0.00 0.00 0.00 79 1015.7
20260507073834 48 210 1.0 5.0 0.00 0.00 0.00 80 1015.7
20260507073334 48 0 1.0 5.0 0.00 0.00 0.00 82 1015.7
20260507072834 47 180 2.0 6.0 0.00 0.00 0.00 83 1015.7
20260507072334 47 157 2.0 6.0 0.00 0.00 0.00 84 1015.7
20260507071834 47 138 2.0 6.0 0.00 0.00 0.00 85 1015.7
20260507071333 46 147 1.0 5.0 0.00 0.00 0.00 86 1015.7
20260507070829 46 66 2.0 5.0 0.00 0.00 0.00 87 1015.7
20260507070328 45 118 2.0 5.0 0.00 0.00 0.00 88 1015.7
20260507065829 45 191 2.0 5.0 0.00 0.00 0.00 90 1015.6
20260507065329 45 178 2.0 5.0 0.00 0.00 0.00 91 1015.6
20260507064829 45 154 1.0 5.0 0.00 0.00 0.00 92 1015.7
20260507064329 44 0 1.0 5.0 0.00 0.00 0.00 94 1015.6
20260507063828 44 0 1.0 4.0 0.00 0.00 0.00 95 1015.6
20260507063330 43 219 1.0 5.0 0.00 0.00 0.00 95 1015.6
20260507062829 42 221 2.0 5.0 0.00 0.00 0.00 96 1015.6
20260507062332 42 250 2.0 5.0 0.00 0.00 0.00 96 1015.5
20260507061831 42 0 1.0 3.0 0.00 0.00 0.00 97 1015.5
20260507061330 41 119 1.0 3.0 0.00 0.00 0.00 97 1015.4
20260507060831 41 198 1.0 3.0 0.00 0.00 0.00 97 1015.4
20260507060331 41 0 1.0 3.0 0.00 0.00 0.00 97 1015.4
20260507055816 41 202 0.0 1.0 0.00 0.00 0.00 97 1015.4
20260507055316 40 0 0.0 2.0 0.00 0.00 0.00 97 1015.3
20260507054804 40 0 0.0 2.0 0.00 0.00 0.00 97 1015.2
20260507054304 39 0 0.0 0.0 0.00 0.00 0.00 97 1015.2
20260507053804 39 0 0.0 0.0 0.00 0.00 0.00 97 1015.3
20260507053305 39 0 0.0 0.0 0.00 0.00 0.00 97 1015.3
20260507052803 38 0 0.0 0.0 0.00 0.00 0.00 97 1015.3
20260507052306 38 0 0.0 0.0 0.00 0.00 0.00 97 1015.3
20260507051806 38 0 0.0 0.0 0.00 0.00 0.00 97 1015.3
20260507051304 38 0 0.0 0.0 0.00 0.00 0.00 97 1015.2
20260507050804 38 0 0.0 0.0 0.00 0.00 0.00 97 1015.2
20260507050305 37 0 0.0 0.0 0.00 0.00 0.00 97 1015.2
20260507045559 37 0 0.0 0.0 0.00 0.00 0.00 97 1015.2
20260507045046 37 0 0.0 0.0 0.00 0.00 0.00 96 1015.2
20260507044546 37 0 0.0 0.0 0.00 0.00 0.00 96 1015.2
20260507044046 37 0 0.0 0.0 0.00 0.00 0.00 96 1015.1
20260507043546 37 0 0.0 0.0 0.00 0.00 0.00 96 1015.1
20260507043046 37 0 0.0 0.0 0.00 0.00 0.00 96 1015.0
20260507042546 37 0 0.0 0.0 0.00 0.00 0.00 96 1015.0
20260507042046 37 0 0.0 0.0 0.00 0.00 0.00 96 1015.0
20260507041546 37 0 0.0 0.0 0.00 0.00 0.00 96 1015.0
20260507041252 37 0 0.0 0.0 0.00 0.00 0.00 96 1015.0
20260507040748 37 0 0.0 1.0 0.00 0.00 0.00 96 1015.0
20260507035743 36 0 0.0 0.0 0.00 0.00 0.00 96 1015.1
20260507035237 36 0 0.0 0.0 0.00 0.00 0.00 96 1015.1
20260507034738 36 0 0.0 0.0 0.00 0.00 0.00 96 1015.1
20260507033745 35 0 0.0 0.0 0.00 0.00 0.00 96 1015.2
20260507033019 35 0 0.0 0.0 0.00 0.00 0.00 96 1015.3
20260507032519 36 0 0.0 0.0 0.00 0.00 0.00 96 1015.3
20260507032021 36 0 0.0 0.0 0.00 0.00 0.00 96 1015.3
20260507031520 36 0 0.0 1.0 0.00 0.00 0.00 96 1015.4
20260507031017 36 0 0.0 1.0 0.00 0.00 0.00 96 1015.3
20260507030516 36 0 0.0 0.0 0.00 0.00 0.00 96 1015.3
20260507030017 36 0 0.0 0.0 0.00 0.00 0.00 96 1015.3
20260507025517 36 0 0.0 0.0 0.00 0.00 0.00 95 1015.4
20260507025017 36 0 0.0 0.0 0.00 0.00 0.00 96 1015.4
20260507024517 36 0 0.0 0.0 0.00 0.00 0.00 96 1015.4
20260507024016 36 0 0.0 0.0 0.00 0.00 0.00 95 1015.3
20260507023515 36 0 0.0 0.0 0.00 0.00 0.00 95 1015.3
20260507023014 36 0 0.0 0.0 0.00 0.00 0.00 95 1015.3
20260507022514 37 0 0.0 0.0 0.00 0.00 0.00 95 1015.2
20260507022013 37 0 0.0 0.0 0.00 0.00 0.00 95 1015.3
20260507021513 37 0 0.0 0.0 0.00 0.00 0.00 95 1015.3
20260507021013 37 0 0.0 0.0 0.00 0.00 0.00 95 1015.3
20260507020508 37 0 0.0 0.0 0.00 0.00 0.00 95 1015.2
20260507020007 38 0 0.0 0.0 0.00 0.00 0.00 95 1015.3
20260507015507 38 0 0.0 0.0 0.00 0.00 0.00 95 1015.3
20260507015007 38 0 0.0 0.0 0.00 0.00 0.00 95 1015.4
20260507014506 38 0 0.0 0.0 0.00 0.00 0.00 95 1015.4
20260507014007 38 0 0.0 0.0 0.00 0.00 0.00 95 1015.4
20260507013507 38 0 0.0 0.0 0.00 0.00 0.00 95 1015.4
20260507013007 38 0 0.0 2.0 0.00 0.00 0.00 95 1015.5
20260507012507 38 0 0.0 2.0 0.00 0.00 0.00 95 1015.5
20260507012007 37 0 0.0 2.0 0.00 0.00 0.00 95 1015.5
20260507011508 37 0 0.0 0.0 0.00 0.00 0.00 95 1015.5
20260507011237 37 0 0.0 2.0 0.00 0.00 0.00 94 1015.5
20260507010503 37 0 0.0 2.0 0.00 0.00 0.00 94 1015.5
20260507010003 37 0 0.0 0.0 0.00 0.00 0.00 94 1015.5
20260507005505 37 0 0.0 0.0 0.00 0.00 0.00 94 1015.5
20260507004505 37 0 0.0 0.0 0.00 0.00 0.00 94 1015.5
20260507003727 37 0 0.0 0.0 0.00 0.00 0.00 93 1015.5
20260507003227 37 0 0.0 0.0 0.00 0.00 0.00 94 1015.5
20260507002003 37 0 0.0 0.0 0.00 0.00 0.00 93 1015.5
20260506235730 38 0 0.0 0.0 0.00 0.00 0.00 93 1015.8
20260506235002 37 0 0.0 0.0 0.00 0.00 0.00 93 1015.8
20260506234003 38 0 0.0 0.0 0.00 0.00 0.00 92 1015.8
20260506233728 38 0 0.0 0.0 0.00 0.00 0.00 92 1015.8
20260506233228 38 0 0.0 0.0 0.00 0.00 0.00 92 1015.7
20260506232503 38 0 0.0 0.0 0.00 0.00 0.00 92 1015.7
20260506232003 38 0 0.0 0.0 0.00 0.00 0.00 92 1015.8
20260506231504 38 0 0.0 0.0 0.00 0.00 0.00 92 1015.8
20260506231004 38 0 0.0 0.0 0.00 0.00 0.00 91 1015.8
20260506230500 38 0 0.0 0.0 0.00 0.00 0.00 91 1015.7
20260506225957 38 0 0.0 0.0 0.00 0.00 0.00 91 1015.8
20260506225458 38 0 0.0 0.0 0.00 0.00 0.00 90 1015.8
20260506224958 38 0 0.0 0.0 0.00 0.00 0.00 90 1015.8
20260506224458 38 0 0.0 0.0 0.00 0.00 0.00 90 1015.9
20260506223959 38 0 0.0 0.0 0.00 0.00 0.00 90 1015.9
20260506223458 39 0 0.0 0.0 0.00 0.00 0.00 90 1015.9
20260506222958 39 0 0.0 0.0 0.00 0.00 0.00 90 1016.0
20260506222459 39 0 0.0 0.0 0.00 0.00 0.00 89 1015.9
20260506221959 39 0 0.0 0.0 0.00 0.00 0.00 89 1015.9
20260506221458 39 0 0.0 0.0 0.00 0.00 0.00 89 1015.9
20260506220957 40 0 0.0 0.0 0.00 0.00 0.00 89 1015.9
20260506220456 40 0 0.0 0.0 0.00 0.00 0.00 89 1015.9
20260506215956 40 0 0.0 0.0 0.00 0.00 0.00 88 1015.9
20260506215456 41 0 0.0 0.0 0.00 0.00 0.00 88 1015.9
20260506214956 41 0 0.0 0.0 0.00 0.00 0.00 88 1015.8
20260506214456 41 0 0.0 1.0 0.00 0.00 0.00 88 1015.8
20260506213956 41 0 0.0 1.0 0.00 0.00 0.00 88 1015.7
20260506213456 41 0 0.0 2.0 0.00 0.00 0.00 87 1015.7
20260506212957 41 0 0.0 2.0 0.00 0.00 0.00 87 1015.7
20260506212457 42 0 0.0 2.0 0.00 0.00 0.00 87 1015.7
20260506211956 42 0 0.0 1.0 0.00 0.00 0.00 86 1015.6
20260506211456 42 0 0.0 2.0 0.00 0.00 0.00 86 1015.6
20260506210952 42 0 0.0 2.0 0.00 0.00 0.00 86 1015.6
20260506210453 42 0 0.0 2.0 0.00 0.00 0.00 85 1015.6
20260506205954 42 0 0.0 3.0 0.00 0.00 0.00 85 1015.6
20260506205454 43 110 0.0 3.0 0.00 0.00 0.00 85 1015.5
20260506204955 43 0 0.0 3.0 0.00 0.00 0.00 84 1015.5
20260506204454 43 0 0.0 3.0 0.00 0.00 0.00 84 1015.5
20260506203955 43 0 0.0 3.0 0.00 0.00 0.00 83 1015.4
20260506203455 44 94 1.0 3.0 0.00 0.00 0.00 83 1015.4
20260506202951 44 0 1.0 5.0 0.00 0.00 0.00 82 1015.4
20260506202450 44 0 1.0 5.0 0.00 0.00 0.00 82 1015.3
20260506201951 44 106 1.0 5.0 0.00 0.00 0.00 81 1015.3
20260506201451 44 0 0.0 3.0 0.00 0.00 0.00 80 1015.3
20260506200952 45 0 1.0 5.0 0.00 0.00 0.00 79 1015.3
20260506200450 45 0 1.0 5.0 0.00 0.00 0.00 79 1015.1
20260506195949 45 117 0.0 3.0 0.00 0.00 0.00 78 1015.1
20260506195449 46 0 0.0 3.0 0.00 0.00 0.00 78 1015.1
20260506194949 46 0 0.0 4.0 0.00 0.00 0.00 77 1015.1
20260506194449 46 0 0.0 4.0 0.00 0.00 0.00 77 1015.1
20260506193949 46 0 1.0 4.0 0.00 0.00 0.00 77 1015.1
20260506193449 46 0 1.0 4.0 0.00 0.00 0.00 77 1015.1
20260506192947 47 74 1.0 4.0 0.00 0.00 0.00 77 1015.0
20260506192447 47 0 1.0 4.0 0.00 0.00 0.00 77 1015.0
20260506191946 47 0 1.0 5.0 0.00 0.00 0.00 76 1015.0
20260506191447 47 340 1.0 5.0 0.00 0.00 0.00 76 1015.0
20260506190948 47 158 1.0 4.0 0.00 0.00 0.00 76 1015.0
20260506190447 47 68 1.0 4.0 0.00 0.00 0.00 76 1015.0
20260506185943 47 69 1.0 4.0 0.00 0.00 0.00 75 1015.0
20260506185442 47 230 1.0 3.0 0.00 0.00 0.00 75 1014.9
20260506184941 47 298 1.0 5.0 0.00 0.00 0.00 74 1014.9
20260506184439 47 39 1.0 5.0 0.00 0.00 0.00 74 1014.9
20260506183939 47 71 1.0 6.0 0.00 0.00 0.00 74 1014.9
20260506183441 47 192 1.0 6.0 0.00 0.00 0.00 74 1014.9
20260506182937 48 83 2.0 5.0 0.00 0.00 0.00 74 1014.9
20260506182438 48 193 2.0 8.0 0.00 0.00 0.00 74 1014.9
20260506181938 48 237 2.0 8.0 0.00 0.00 0.00 74 1014.9
20260506181439 48 74 1.0 5.0 0.00 0.00 0.00 73 1014.8
20260506180938 48 0 1.0 5.0 0.00 0.00 0.00 73 1014.8
20260506180438 48 10 1.0 5.0 0.00 0.00 0.00 73 1014.8
20260506175938 48 310 1.0 6.0 0.00 0.00 0.00 73 1014.8
20260506175436 49 12 2.0 6.0 0.00 0.00 0.00 72 1014.8
20260506174935 49 149 1.0 5.0 0.00 0.00 0.00 72 1014.7
20260506174435 49 79 1.0 5.0 0.00 0.00 0.00 72 1014.7
20260506173935 49 269 1.0 5.0 0.00 0.00 0.00 72 1014.7
20260506173434 49 71 1.0 5.0 0.00 0.00 0.00 72 1014.7
20260506172934 49 0 1.0 4.0 0.00 0.00 0.00 71 1014.7
20260506172434 49 0 1.0 5.0 0.00 0.00 0.00 71 1014.6
20260506171934 49 0 1.0 5.0 0.00 0.00 0.00 71 1014.6
20260506171433 49 23 2.0 5.0 0.00 0.00 0.00 71 1014.6
20260506170933 49 245 2.0 6.0 0.00 0.00 0.00 71 1014.6
20260506170433 49 65 2.0 6.0 0.00 0.00 0.00 70 1014.6
20260506165932 50 337 2.0 6.0 0.00 0.00 0.00 70 1014.5
20260506165431 50 349 2.0 6.0 0.00 0.00 0.00 70 1014.5
20260506164928 50 25 2.0 5.0 0.00 0.00 0.00 71 1014.5
20260506164428 50 41 2.0 4.0 0.00 0.00 0.00 71 1014.5
20260506163925 50 149 2.0 5.0 0.00 0.00 0.00 70 1014.6
20260506163425 50 291 2.0 5.0 0.00 0.00 0.00 69 1014.5
20260506162926 50 60 2.0 7.0 0.00 0.00 0.00 68 1014.5
20260506162426 50 60 2.0 7.0 0.00 0.00 0.00 68 1014.5
20260506161925 51 349 1.0 5.0 0.00 0.00 0.00 68 1014.5
20260506161425 51 129 2.0 5.0 0.00 0.00 0.00 68 1014.5
20260506160925 50 83 2.0 6.0 0.00 0.00 0.00 68 1014.5
20260506160424 50 33 2.0 8.0 0.00 0.00 0.00 68 1014.5
20260506155923 50 4 2.0 8.0 0.00 0.00 0.00 67 1014.5
20260506155424 50 49 2.0 7.0 0.00 0.00 0.00 69 1014.5
20260506154920 50 167 2.0 7.0 0.00 0.00 0.00 68 1014.5
20260506154417 50 94 2.0 6.0 0.00 0.00 0.00 68 1014.5
20260506153917 50 202 2.0 6.0 0.00 0.00 0.00 68 1014.4
20260506153414 50 102 3.0 6.0 0.00 0.00 0.00 69 1014.5
20260506152914 50 87 2.0 7.0 0.00 0.00 0.00 68 1014.5
20260506152414 50 57 2.0 7.0 0.00 0.00 0.00 69 1014.5
20260506151914 50 149 2.0 6.0 0.00 0.00 0.00 69 1014.5
20260506151414 50 14 3.0 6.0 0.00 0.00 0.00 68 1014.6
20260506150914 50 28 3.0 7.0 0.00 0.00 0.00 69 1014.6
20260506150413 50 29 3.0 7.0 0.00 0.00 0.00 70 1014.6
20260506145913 51 62 3.0 7.0 0.00 0.00 0.00 70 1014.7
20260506145413 51 209 2.0 6.0 0.00 0.00 0.00 69 1014.7
20260506144916 51 227 2.0 8.0 0.00 0.00 0.00 69 1014.6
20260506144411 51 67 2.0 8.0 0.00 0.00 0.00 67 1014.6
20260506143911 51 205 2.0 7.0 0.00 0.00 0.00 66 1014.6
20260506143410 51 49 2.0 7.0 0.00 0.00 0.00 67 1014.7
20260506142911 51 0 2.0 7.0 0.00 0.00 0.00 67 1014.6
20260506142411 51 119 2.0 6.0 0.00 0.00 0.00 66 1014.6
20260506141911 52 341 2.0 6.0 0.00 0.00 0.00 65 1014.6